This is the latest recevied weather packets stored in our database for station/object WS2Z. If no packets are shown the sender has not sent any weather packets the latest 10 day(s).
| Time | Temp. | Humidity | Pressure | Rain* | Wind** | Luminosity | Snow |
|---|---|---|---|---|---|---|---|
| 1777984180 | 20.56° C | 95% | 1015.3 hPa | 0 mm | - | 82 W/m² | - |
| 1777983878 | 20.56° C | 96% | 1015.4 hPa | 0 mm | - | 76 W/m² | - |
| 1777983574 | 20.56° C | 95% | 1015.4 hPa | 0 mm | - | 61 W/m² | - |
| 1777983272 | 20° C | 96% | 1015.3 hPa | 0 mm | - | 54 W/m² | - |
| 1777982967 | 20° C | 96% | 1015.1 hPa | 0 mm | - | 49 W/m² | - |
| 1777982664 | 20° C | 95% | 1015.4 hPa | 0 mm | - | 53 W/m² | - |
| 1777982363 | 20° C | 95% | 1015.3 hPa | 0 mm | - | 51 W/m² | - |
| 1777982060 | 20° C | 96% | 1015.2 hPa | 0 mm | - | 39 W/m² | - |
| 1777981758 | 20° C | 96% | 1015.1 hPa | 0 mm | - | 30 W/m² | - |
| 1777981454 | 20° C | 95% | 1014.9 hPa | 0 mm | - | 41 W/m² | - |
| 1777981150 | 20° C | 96% | 1014.9 hPa | 0 mm | - | 33 W/m² | - |
| 1777980847 | 20° C | 96% | 1014.9 hPa | 0 mm | - | 24 W/m² | - |
| 1777980543 | 20° C | 95% | 1014.9 hPa | 0 mm | - | 20 W/m² | - |
| 1777980241 | 20° C | 95% | 1014.7 hPa | 0 mm | - | 18 W/m² | - |
| 1777979936 | 20° C | 96% | 1014.7 hPa | 0 mm | - | 16 W/m² | - |
| 1777979631 | 20° C | 96% | 1014.7 hPa | 0 mm | - | 13 W/m² | - |
| 1777979328 | 20° C | 96% | 1014.7 hPa | 0 mm | - | 11 W/m² | - |
| 1777979025 | 20° C | 96% | 1014.6 hPa | 0 mm | - | 9 W/m² | - |
| 1777978721 | 20° C | 96% | 1014.5 hPa | 0 mm | - | 6 W/m² | - |
| 1777978418 | 20° C | 95% | 1014.6 hPa | 0 mm | - | 4 W/m² | - |
| 1777978114 | 20° C | 96% | 1014.5 hPa | 0 mm | - | 3 W/m² | - |
| 1777977812 | 20° C | 95% | 1014.5 hPa | 0 mm | - | 1 W/m² | - |
| 1777977507 | 20° C | 95% | 1014.3 hPa | 0 mm | - | 1 W/m² | - |
| 1777977206 | 20° C | 95% | 1014.3 hPa | 0 mm | - | 0 W/m² | - |
| 1777976903 | 20° C | 95% | 1014.2 hPa | 0 mm | - | 0 W/m² | - |
* Rain latest hour (hover to see other rain measurements)
** Current wind speed in m/s (hover to see current wind gust speed)